Погода в Лаукуве

Погода в Лаукуве : погода сейчас, прогноз погоды и архив. Всё, что Вы хотите узнать о погоде в Лаукуве!

Поиск расширенной информации на нашем сайте:

Полезная информация:

Другие новости

Новости СМИ2

Главная страница сайта

Новости сайта

03.07.2017

Напоминаем, что на нашем специализированном сайте Метеоцентр.Азия вы можете получить высокодетализированные автоматические прогнозы погоды по пунктам России, СНГ и мира в авиационном формате (включающие направление и скорость ветра, видимость, явления погоды, количество и форму облачности, нижнюю и верхнюю границу облачности).

Рекомендуем:

Погода в Лаукуве - сегодня

Время (UTC), дата Ветер
(°,м/с) 
Видим.   Явления Облачность Т
(°С)
Тd
(°С)
f(%) Тe
(°С)
Pmin
(гПа)
dP
(гПа)
Po
(мм)
O2
(г/м3)
Тmin Tmax R s Состояние
почвы
03 19.03.19 240 (ЮЗ) 5-8{12}  12000 м  слаб. ливневой дождь  10/10 210 м кучево-дожд. 
[Cb cap]
+2.1 +0.9 92 -1  1009.9  1.3  742  297           
06 19.03.19 260 (З) 4-7{08}  20000 м  слаб. ливневой снег  10/10 450 м кучево-дожд. 
[Cb cap]
+0.9 +0.2 95 -1  1012.3  2.3  744  299  +0.8      влажная 
09 19.03.19 270 (З) 5-7{11}  20000 м  в посл. час ливневой снег  9/8 1500 м средняя 
[Sc|Ac trans]
+2.1 +0.8 91 -1  1015.1  2.8  746  298           
12 19.03.19 270 (З) 7-12{12}  20000 м  в посл. час ливневой дождь  10/10 360 м 
[Sc]
+2.5 +0.2 85 -1  1017.9  2.7  748  299      0.3     
15 19.03.19 280 (З) 6-9{12}  20000 м  в посл. час ливневой дождь  10/10 480 м 
[Sc]
+2.1 -0.1 85 -1  1020.5  2.4  750  300           
18 19.03.19 270 (З) 4-6{09}  20000 м  {ливн. осадки}  9/9 800 м 
[Sc]
+1.1 -1.1 85 -1  1022.8  2.2  751  302    +3  0.3     
21 19.03.19 290 (З) 4-6{09}  20000 м  в посл. час ливневой дождь  9/9 900 м 
[Sc]
+0.5 -2.5 80 -2  1024.8  1.8  753  303           
00 20.03.19 250 (З) 2-4{07}  20000 м  в посл. час ливневой снег  8/8 1000 м 
[Sc]
+0.3 -1.5 88 1026  1.2  754  304      0.0     
03 20.03.19 270 (З) 3-4{05}  20000 м    10/10 150 м 
[St]
+0.3 -0.6 94 -1  1026.5  0.6  754  304           
06 20.03.19 230 (ЮЗ) 4-6{06}  19000 м    10/10 150 м 
[St]
+0.9 +0.5 97 -1  1027  0.5  755  303  +0.1    0.0    влажная 
09 20.03.19 250 (З) 5-8{09}  20000 м  {туман}  9/8 1000 м верхняя 
[Sc|Ci sp]
+4 +1.1 81 +2  1027.6  0.8  755  300           
12 20.03.19 240 (ЮЗ) 6-9{12}  20000 м  {туман}  9/4 1000 м средняя, верхняя 
[Cu med, cong|Ac trans|Ci sp]
+6.1 -3.8 49 +4  1027.2  -0.2  755  298           
15 20.03.19 250 (З) 6-11{14}  20000 м    9/9 2000 м средняя 
[Ac As]
+5.3 -1.4 62 +3  1025.4  -1.8  754  298           
18 20.03.19 240 (ЮЗ) 7-13{14}  8000 м  слаб. дождь  10/10 240 м 
[Frnb|Ns]
+3.2 +1.9 91 1024.8  -0.8  753  300    +6.8     
21 20.03.19 280 (З) 5-8{14}  0700 м  туман{дождь}  ?/?  
+4.1 +3.9 99 +2  1024  -0.7  752  298           
00 21.03.19 280 (З) 4-6{10}  0800 м  туман{дождь}  ?/?  
+3.7 +3.5 99 +2  1024.8  0.7  753  299         
03 21.03.19 270 (З) 3-5{07}  0500 м  туман  ?/?  
+2.9 +2.8 99 +2  1025.6  0.7  754  300           
06 21.03.19 250 (З) 4-5{06}  0300 м  туман  ?/?  
+2.5 +2.3 99 1026.3  0.6  754  301  +2.4      влажная 
09 21.03.19 250 (З) 4-7{08}  3200 м  в посл. час туман  10/10 30 м 
[St]
+3.5 +3.3 99 +2  1027  0.8  755  300           
12 21.03.19 240 (ЮЗ) 5-9{11}  18000 м  {туман}  10/10 180 м 
[St]
+5.1 +4.9 99 +3  1025.9  -1  754  297           
15 21.03.19 260 (З) 6-12{12}  1000 м  слаб. дождь{морось}  10/10 60 м 
[Frnb|Ns]
+5.4 +5.2 99 +3  1023.4  -2.4  752  296           
18 21.03.19 270 (З) 6-9{13}  0300 м  слаб. дождь{морось}  ?/?  
+5.2 +5 99 +3  1022.8  -0.7  752  296    +5.5  0.8     
21 21.03.19 280 (З) 6-10{12}  0400 м  слаб. дождь{туман}  ?/?  
+5 +4.8 99 +2  1022.5  -0.3  751  297           
00 22.03.19 280 (З) 5-8{10}  0900 м  туман{дождь, морось}  ?/?  
+5.7 +5.6 99 +4  1022.8  0.3  752  296      0.4     
03 22.03.19 320 (СЗ) 4-6{08}  11000 м  {туман}  10/10 240 м 
[St]
+5.6 +5.4 99 +4  1025.2  2.4  753  297           
Время (UTC), дата Ветер
(°,м/с) 
Видим.   Явления Облачность Т
(°С)
Тd
(°С)
f(%) Тe
(°С)
Pmin
(гПа)
dP
(гПа)
Po
(мм)
O2
(г/м3)
Тmin Tmax R s Состояние
почвы

Для получения пояснительной информации подведите курсор к названию столбца.

ПОГОДА в Лаукуве - архив

Всё, что Вы хотите узнать о погоде в Лаукуве - удобно и подробно!

Выберите нужную дату (начиная с 1 января 2018* года) и нажмите кнопку "Найти".
Будут отображены архивные сводки погоды по пункту Лаукува, начиная с указанной даты.


Отображать данные в формате CSV (для использования в таблицах Excel)


Внимание! Наш архив погоды предназначен исключительно для личного некоммерческого использования в познавательных целях. Если Вам необходимы официальные справки о состоянии погоды (для производственных, юридических, коммерческих и т.п. целей), обращайтесь в органы Росгидромета.

*Примечание: данная дата относится к архиву по метеостанциям СССР (Россия, СНГ, Балтия).
Архив по метеостанциям Зарубежной Европы и Азии (кроме Китая) хранится 10 дней, по другим регионам земного шара (Китай, Африка, Америка, Австралия, Океания) - 1 день.

Лаукува - район местоположения метеостанции


Название, широта, долгота, высота метеостанции:
Лаукува 55.6°ш. 22.2°д. 166 м над ур. моря [Литва]

Дополнительная информация

В oтличие oт бoльшинства пoгoдных сайтoв мы публикуем пoдрoбную метеoинфoрмацию в детальнoм прoфессиoнальнoм фoрмате.

Характеристики температуры и влажнoсти вoздуха измеряются на высoте 2 м в тени вдали oт зданий и деревьев.
Скoрoсть ветра измеряется на высoте 10 м (на урoвне рoста челoвека скoрoсть ветра ниже в 1.5-2 раза). Если метеoстанция нахoдится в гoрoде или в лесу, тo скoрoсть ветра занижена на 2-4 м/с пo сравнению с oткрытым местoм. Скoрoсть ветра над акватoриями крупных рек и oзёр, а также на вершинах хoлмoв на 2-5 м/с выше, чем в oбычных услoвиях.
Атмoсфернoе давление в разных тoчках местнoсти мoжет значительнo oтличаться oт давления на метеoстанции, в зависимoсти oт услoвий рельефа (при пoдъёме на 10 м давление пoнижается примернo на 1 мм рт.ст.).